Regional Weather Roundup
Issued by NWS

Home | Current Version | Previous Version | Graphics & Text | Print | Product List | Glossary On
Versions: 1 2 3 4 5 6 7 8 9 10 11 12 13 14 15 16 17 18 19 20 21 22 23 24 25 26 27 28 29 30 31 32 33 34 35 36 37 38 39 40 41 42 43 44 45 46 47 48 49 50
000
ASUS43 KMKX 172300
RWRWI

WISCONSIN REGIONAL WEATHER ROUNDUP
NATIONAL WEATHER SERVICE MILWAUKEE/SULLIVAN WI
500 PM CST FRI NOV 17 2017

NOTE: "FAIR" INDICATES FEW OR NO CLOUDS BELOW 12,000 FEET WITH NO
SIGNIFICANT WEATHER AND/OR OBSTRUCTIONS TO VISIBILITY.

WIZ001-002-006>008-014>016-023>028-180000-
NORTHWEST WISCONSIN

CITY           SKY/WX    TMP DP  RH WIND       PRES   REMARKS
SUPERIOR ARPT  CLOUDY    33  33 100 S3        29.66R FOG
ASHLAND        CLOUDY    33  31  92 N3        29.65S FOG
HAYWARD        CLOUDY    34  33  96 CALM      29.62R FOG
SIREN          DRIZZLE   34  34  98 N3        29.63R
CUMBERLAND     LGT RAIN  32  32 100 CALM      29.62R
RICE LAKE      CLOUDY    35  34  99 SE3       29.63S FOG
CHETEK         CLOUDY    34  34 100 CALM      29.62F FOG
LADYSMITH      CLOUDY    34  34  98 SE5       29.63F FOG     WCI  30
EAU CLAIRE     NOT AVBL
MENOMONIE      CLOUDY    36  36 100 E3        29.63S FOG
NEW RICHMOND   CLOUDY    36  36  99 CALM      29.62S FOG
OSCEOLA        CLOUDY    36  36 100 SE3       29.64F
$$

WIZ003>005-009-010-017-018-180000-
NORTH CENTRAL WISCONSIN

CITY           SKY/WX    TMP DP  RH WIND       PRES   REMARKS
MANITOWISH WTR LGT SNOW  32  32 100 CALM      29.62F
ARBOR VITAE    MIX PCPN  34  33  96 S5        29.61F WCI  30
WOODRUFF       MIX PCPN  34  33  96 S5        29.61F WCI  30
RHINELANDER    CLOUDY    33  33 100 SW6       29.63F FOG     WCI  28
EAGLE RIVER    MIX PCPN  32  32 100 CALM      29.61F
LAND O LAKES   LGT SNOW  33  33  99 CALM      29.65F
PHILLIPS       RAIN      32  32 100 S3        29.61F
TOMAHAWK       CLOUDY    32  31  98 CALM      29.64F FOG
MEDFORD        DRIZZLE   32  32 100 S3        29.63S
MERRILL        CLOUDY    33  33 100 CALM      29.65F FOG
$$

WIZ029-030-035-036-043>047-180000-
CENTRAL WISCONSIN

CITY           SKY/WX    TMP DP  RH WIND       PRES   REMARKS
WAUSAU         CLOUDY    33  33 100 S3        29.64S FOG
MOSINEE        DRIZZLE   34  34 100 S3        29.65F
MARSHFIELD     LGT RAIN  34  33  96 S5        29.63S FOG     WCI  30
STEVENS POINT  LGT RAIN  33  33 100 CALM      29.66F
WAUPACA        CLOUDY    39  35  85 S7        29.66F WCI  34
WAUTOMA        MIX PCPN  36  35  96 S5        29.65F FOG     WCI  32
WISC RAPIDS    LGT RAIN  36  35  96 CALM      29.66F FOG
CAMP DOUGLAS   DRIZZLE   36  36  99 CALM      29.64F FOG
$$

WIZ011>013-019>022-031-037>040-048>050-180000-
NORTHEAST WISCONSIN

CITY           SKY/WX    TMP DP  RH WIND       PRES   REMARKS
ANTIGO         CLOUDY    32  32 100 CALM      29.64F FOG
SHAWANO        RAIN      38  35  90 CALM      29.67F
OCONTO         CLOUDY    38  37  93 SW6       29.68F WCI  34
STURGEON BAY   LGT RAIN  41  38  89 S18G26    29.66F
GREEN BAY      RAIN      39  38  96 S8        29.67F WCI  33
MANITOWOC      NOT AVBL
APPLETON       LGT RAIN  37  34  87 S8        29.65F WCI  31
CLINTONVILLE   LGT RAIN  37  34  87 SW5       29.67S WCI  34
OSHKOSH        TSTM      38  37  97 S10       29.64F FOG     WCI  31
$$

WIZ032>034-041-042-053>061-180000-
SOUTHWEST WISCONSIN

CITY           SKY/WX    TMP DP  RH WIND       PRES   REMARKS
LA CROSSE      CLOUDY    39  38  96 SE3       29.62F FOG
SPARTA         DRIZZLE   35  35 100 CALM      29.66S
VIROQUA        CLOUDY    36  36 100 SE3       29.62S
BOSCOBEL       LGT RAIN  40  37  89 CALM      29.63F FOG
PRAIRIE DU CHI DRIZZLE   38  37  94 E6        29.61F WCI  34
PLATTEVILLE    CLOUDY    38  38 100 SE7       29.63F WCI  33
$$

WIZ056-057-062-063-064-067-068-180000-
SOUTH CENTRAL WISCONSIN

CITY           SKY/WX    TMP DP  RH WIND       PRES   REMARKS
REEDSBURG      CLOUDY    36  36 100 S3        29.64F FOG
BARABOO/DELLS  DRIZZLE   36  35  95 S5        29.64F WCI  32
LONE ROCK      CLOUDY    38  38 100 E5        29.64F FOG     WCI  34
MINERAL POINT  LGT RAIN  37  37 100 SE8       29.62F WCI  31
MADISON        DRIZZLE   37  36  96 S10       29.65S FOG     WCI  30
MIDDLETON      CLOUDY    38  38  97 S9        29.65F WCI  32
WATERTOWN      CLOUDY    39  38  95 S13       29.65F WCI  32
MONROE         CLOUDY    36  36 100 S14       29.64F WCI  27
JANESVILLE     RAIN      39  39 100 S13G21    29.67F WCI  32
$$

WIZ051-052-058>065-066-070>072-180000-
SOUTHEAST WISCONSIN

CITY           SKY/WX    TMP DP  RH WIND       PRES   REMARKS
MILWAUKEE      CLOUDY    42  38  85 S15G24    29.67F
WAUKESHA       CLOUDY    39  36  87 S14G22    29.67F WCI  31
MILWAUKEE/TIMM CLOUDY    41  34  75 S16       29.68F
RACINE         CLOUDY    41  38  89 S24G36    29.71F FOG
BURLINGTON     CLOUDY    41  41 100 S13G20    29.68F FOG
KENOSHA        CLOUDY    41  37  86 S15       29.69F
FOND DU LAC    LGT RAIN  39  34  82 S9        29.65F WCI  33
SHEBOYGAN      CLOUDY    41  37  86 S20G26    29.66F
WEST BEND      CLOUDY    37  34  87 S8        29.67F WCI  31
JUNEAU         CLOUDY    38  36  92 S7        29.68F WCI  32
$$

LSZ147-162-180000-
LAKE SUPERIOR

STATION/POSITION TIME  TEMP    WIND        PRES    WAVE
                       AIR SEA DIR/SP/G            HT/PER
                 (UTC) (F)     (DEG/KT/KT) (MB)    (FT/S)
DEVILS ISLAND    2200   35     270/  6/  7 1004.9R
SAXON HARBOR     2240   34     270/  2/  3 1003.7R
$$

LMZ867-665-643>646-180000-
LAKE MICHIGAN

STATION/POSITION TIME  TEMP    WIND        PRES    WAVE
                       AIR SEA DIR/SP/G            HT/PER
                 (UTC) (F)     (DEG/KT/KT) (MB)    (FT/S)
N MID LAKE BUOY  2150   42 49  170/ 25/ 31 1006.7F   9/ 7
NORTHPORT PIER   2240   42     160/ 10/ 21 1005.4S
SHEBOYGAN LAKESH 2200   42     170/ 26/ 28 1005.9F
PORT WASHINGTON  2230   43     170/ 17/ 23 1006.8F
MILWAUKEE LAKESH 2230   42     170/ 19/ 22   N/A
S MID LAKE BUOY  2150   45 50  170/ 23/ 31 1008.8F   6/ 6
KENOSHA   LAKESH 2200   41     180/ 18/ 26 1007.8
$$

TC  - TEMPERATURE IN CELSIUS
VSB - VISIBILITY IN STATUTE MILES
WCI - WIND CHILL INDEX
HX  - HEAT INDEX





USA.gov is the U.S. government's official web portal to all federal, state and local government web resources and services.